Tracking 35280 objects as of 6-Sep-2026
HD Live streaming from Space Station
objects crossing your sky now

NOAA 16 DEB

Track NOAA 16 DEB now!
10-day predictions


NORAD ID: 41356
Int'l Code: 2000-055HZ
Launch date: September 21, 2000
Source: United States (US)
Launch site: AIR FORCE WESTERN TEST RANGE (AFWTR)

Note: This is SATELLITE DEBRIS
Your satellite tracking list
Your tracking list is empty




NASA's NSSDC Master Catalog

Two Line Element Set (TLE):
1 41356U 00055HZ  26249.42475012  .00001805  00000-0  80058-3 0  9995
2 41356  98.7452 304.7265 0036416 259.0094 100.6987 14.23955433548931
Source of the keplerian elements: AFSPC